Printer-friendly version

IAU Minor Planet Center

Minor Planet Center

MPEC 2002-A42: 2001 VG75

The following Minor Planet Electronic Circular may be linked-to from your own Web pages, but must not otherwise be redistributed electronically.


Read MPEC 2002-A41 Read MPEC 2002-A43


M.P.E.C. 2002-A42                                Issued 2002 Jan.  9, 16:13 UT

     The Minor Planet Electronic Circulars contain information on unusual
         minor planets and routine data on comets.  They are published
   on behalf of Commission 20 of the International Astronomical Union by the
          Minor Planet Center, Smithsonian Astrophysical Observatory,
                          Cambridge, MA 02138, U.S.A.

             Prepared using the Tamkin Foundation Computer Network

                              MPC@CFA.HARVARD.EDU
          URL http://cfa-www.harvard.edu/iau/mpc.html  ISSN 1523-6714

                                   2001 VG75

                           Revision to MPEC 2001-W03

Observations:
     K01V75G 1 1976 03 07.70598 13 43 31.64 -77 13 48.9                      260
     K01V75G 1 1976 03 07.75459 13 43 41.44 -77 13 38.4                      260
     K01V75G 1 1976 05 01.56135 14 19 03.70 -48 17 41.2                      260
     K01V75G 1 1976 05 01.59954 14 19 02.30 -48 15 15.4                      260
     K01V75G 1 1976 05 27.46681 14 19 07.64 -22 55 19.2                      260
     K01V75G 1 1976 05 27.50847 14 19 08.52 -22 53 25.0                      260

Observer details:
260 Siding Spring-DSS.  Trail located and measured by DANEOPS (A. Gnadig).
    1.2-m Schmidt.

Orbital elements:
2001 VG75
Epoch 2001 Oct. 18.0 TT = JDT 2452200.5                 MPC
M 265.44830              (2000.0)            P               Q
n   0.52669153     Peri.  257.16209     -0.73887097     -0.59226916
a   1.5185595      Node   245.58823     +0.66843102     -0.70454883
e   0.2968192      Incl.   20.66698     -0.08526229     -0.39093246
P   1.87           H   18.3           G   0.15           U   3
Residuals in seconds of arc
760307 260  1.2+  0.1+    011114 557  0.1-  0.4+    011119 696  0.3+  0.1+
760307 260  1.4-  0.3-    011114 557  0.7-  0.4-    011121 691  0.4+  0.3-
760501 260  0.5-  0.1+    011114 046  0.7+  0.6+    011121 691  0.2+  0.2-
760501 260  1.3+  0.0     011115 046  0.3-  0.1-    011121 691  1.0+  0.0
760527 260  1.1-  0.6-    011115 046 (2.2-  1.8+)   011206 649  0.3-  0.2+
760527 260  0.3+  0.5+    011115 046  0.8-  0.2+    011206 649  0.9+  0.5+
011112 704  0.4-  0.1+    011115 046  1.9-  0.6+    020108 291  0.1+  0.2-
011112 704  0.4-  0.4-    011116 651  0.9+  0.9+    020108 291  0.3+  0.1+
011112 704  0.3-  0.4-    011116 651  0.6+  1.1-    020108 291  0.3-  0.2+
011112 704  0.3-  0.2-    011116 651  0.8+  0.2-
011114 557  0.1+  0.1-    011119 696  0.0   0.2-

Ephemeris:
2001 VG75                a,e,i = 1.52, 0.30, 21                  q = 1.0678
Date    TT    R. A. (2000) Decl.     Delta      r     Elong.  Phase     V
2002 01 06    00 36.01   +08 03.0    0.998    1.351    86.0    46.5    20.7
2002 01 16    00 59.06   +07 01.2    1.037    1.308    80.7    47.9    20.8
2002 01 26    01 23.93   +06 20.8    1.071    1.266    75.9    49.0    20.8
2002 02 05    01 50.41   +05 55.6    1.098    1.226    71.9    49.8    20.8
2002 02 15    02 18.43   +05 40.6    1.119    1.189    68.4    50.6    20.8
2002 02 25    02 47.92   +05 31.0    1.133    1.154    65.5    51.3    20.8
2002 03 07    03 18.84   +05 22.6    1.140    1.125    63.2    52.0    20.8
2002 03 17    03 51.24   +05 12.2    1.140    1.100    61.6    52.7    20.7
2002 03 27    04 25.14   +04 57.0    1.135    1.082    60.6    53.4    20.7
2002 04 06    05 00.55   +04 34.7    1.127    1.071    60.1    54.1    20.7
2002 04 16    05 37.52   +04 04.2    1.116    1.068    60.2    54.6    20.7
2002 04 26    06 16.03   +03 24.2    1.107    1.072    60.8    55.0    20.7
2002 05 06    06 55.94   +02 34.4    1.100    1.084    61.7    55.0    20.7
2002 05 16    07 37.05   +01 35.0    1.101    1.102    62.8    54.6    20.7
2002 05 26    08 18.92   +00 26.4    1.110    1.127    64.0    53.8    20.8
2002 06 05    09 00.99   -00 49.8    1.131    1.158    65.0    52.6    20.8
2002 06 15    09 42.65   -02 11.5    1.164    1.192    65.9    51.0    20.9
2002 06 25    10 23.30   -03 36.5    1.212    1.230    66.4    49.2    21.0
2002 07 05    11 02.44   -05 02.3    1.272    1.270    66.4    47.1    21.1
2002 07 15    11 39.83   -06 26.8    1.344    1.312    65.9    45.0    21.3
2002 07 25    12 15.34   -07 48.4    1.427    1.355    64.9    42.7    21.4
2002 08 04    12 49.02   -09 05.7    1.518    1.399    63.4    40.4    21.5
2002 08 14    13 21.05   -10 17.6    1.616    1.442    61.6    38.2    21.7

Gareth V. Williams           (C) Copyright 2002 MPC           M.P.E.C. 2002-A42

Read MPEC 2002-A41 Read MPEC 2002-A43


Our Web policy. Index to the CBAT/MPC/ICQ pages.


Valid HTML 4.01!